This is the latest recevied weather packets stored in our database for station/object W0WC. If no packets are shown the sender has not sent any weather packets the latest 10 day(s).
| Time | Temp. | Humidity | Pressure | Rain* | Wind** | Luminosity | Snow |
|---|---|---|---|---|---|---|---|
| 1788624510 | 35° C | 45% | 1016.7 hPa | 0 mm | - | 563 W/m² | - |
| 1788624223 | 35.56° C | 44% | 1016.8 hPa | 0 mm | - | 550 W/m² | - |
| 1788623900 | 35° C | 45% | 1016.9 hPa | 0 mm | - | 538 W/m² | - |
| 1788623599 | 35° C | 45% | 1016.8 hPa | 0 mm | - | 529 W/m² | - |
| 1788623294 | 35° C | 46% | 1016.8 hPa | 0 mm | - | 520 W/m² | - |
| 1788622989 | 34.44° C | 47% | 1016.8 hPa | 0 mm | - | 509 W/m² | - |
| 1788622684 | 33.89° C | 47% | 1016.6 hPa | 0 mm | - | 496 W/m² | - |
| 1788622381 | 33.89° C | 48% | 1016.7 hPa | 0 mm | - | 484 W/m² | - |
| 1788622079 | 33.89° C | 48% | 1016.7 hPa | 0 mm | - | 471 W/m² | - |
| 1788621779 | 33.89° C | 48% | 1016.6 hPa | 0 mm | - | 459 W/m² | - |
| 1788621474 | 33.89° C | 48% | 1016.6 hPa | 0 mm | - | 447 W/m² | - |
| 1788621170 | 33.33° C | 48% | 1016.5 hPa | 0 mm | - | 431 W/m² | - |
| 1788620870 | 33.33° C | 48% | 1016.6 hPa | 0 mm | - | 419 W/m² | - |
| 1788620569 | 33.33° C | 49% | 1016.5 hPa | 0 mm | - | 392 W/m² | - |
| 1788620267 | 33.33° C | 49% | 1016.6 hPa | 0 mm | - | 355 W/m² | - |
| 1788619962 | 33.33° C | 49% | 1016.6 hPa | 0 mm | - | 379 W/m² | - |
| 1788619660 | 33.33° C | 50% | 1016.2 hPa | 0 mm | - | 367 W/m² | - |
| 1788619356 | 32.78° C | 50% | 1016.4 hPa | 0 mm | - | 349 W/m² | - |
| 1788619050 | 32.22° C | 51% | 1016.6 hPa | 0 mm | - | 335 W/m² | - |
| 1788618749 | 31.67° C | 52% | 1016.3 hPa | 0 mm | - | 318 W/m² | - |
| 1788618448 | 31.67° C | 53% | 1016.4 hPa | 0 mm | - | 304 W/m² | - |
| 1788618143 | 31.67° C | 52% | 1016.3 hPa | 0 mm | - | 288 W/m² | - |
| 1788617839 | 31.67° C | 53% | 1016.4 hPa | 0 mm | - | 273 W/m² | - |
| 1788617534 | 31.11° C | 54% | 1016.3 hPa | 0 mm | - | 258 W/m² | - |
| 1788617229 | 31.11° C | 54% | 1016.3 hPa | 0 mm | - | 161 W/m² | - |
* Rain latest hour (hover to see other rain measurements)
** Current wind speed in m/s (hover to see current wind gust speed)